Location: Hemaruka
(51.7801°N, 111.0917°W)
Time: 03:09:12
(UTC+00:00)

ISS - Visible Passes

Search period start: 19 June 2024 00:00
Search period end: 29 June 2024 00:00
Orbit: 411 x 425 km, 51.6° (Epoch: 18 June)

Date Brightness Start Highest point End Pass type
(mag) Time Alt. Az. Time Alt. Az. Time Alt. Az.
27 Jun -1.9 09:33:15 13° S 09:35:06 19° SE 09:37:32 10° E visible
28 Jun -1.6 08:46:41 13° SSE 08:47:08 13° SE 08:48:45 10° ESE visible
28 Jun -3.3 10:20:04 10° SW 10:23:17 47° SSE 10:26:32 10° E visible
